Change the Weather History Date:

Wednesday, September 12, 2012

  Actual Average Record
Temperature  
Mean Temperature 86 °F -  
Max Temperature 90 °F 84 °F 90 °F (2012)
Min Temperature 82 °F 76 °F 32 °F (1999)
Cooling Degree Days 21    
Growing Degree Days 36 (Base 50)    
Moisture  
Dew Point 76 °F    
Average Humidity 75    
Maximum Humidity 85    
Minimum Humidity 65    
Precipitation  
Precipitation 0.00 in - - ()
Sea Level Pressure  
Sea Level Pressure 29.93 in    
Wind  
Wind Speed 7 mph (East)    
Max Wind Speed 13 mph    
Max Gust Speed -    
Visibility 10 miles    
Events Rain    
Averages and records for this station are not official NWS values.
T = Trace of Precipitation, MM = Missing Value Source: NWS Daily Summary

Daily Weather History Graph

Daily Weather History Graph

Search for Another Location

Airport or City:

Trip Planner

Search our weather history database for the weather conditions in past years. The results will help you decide how hot, cold, wet, or windy it might be!

Date:

Astronomy

Sep. 12, 2012 Rise Set
Actual Time 6:05 AM ChST 6:21 PM ChST
Civil Twilight 5:44 AM ChST 6:42 PM ChST
Nautical Twilight 5:18 AM ChST 7:07 PM ChST
Astronomical Twilight 4:53 AM ChST 7:32 PM ChST
Moon 2:15 AM ChST (9/12) 3:16 PM ChST (9/12)
Length of Visible Light 12h 58m
Length of Day
12h 15m
Waning Crescent, 18% of the Moon is Illuminated
Sep 12
Waning Crescent
Sep 16
New
Sep 23
First Quarter
Sep 30
Full
Oct 8
Last Quarter

Hourly Weather History & Observations

Time (ChST) Temp. Heat Index Dew Point Humidity Pressure Visibility Wind Dir Wind Speed Gust Speed Precip Events Conditions
12:54 AM 82.9 °F 90.2 °F 75.0 °F 77% 29.93 in 10.0 mi East 5.8 mph - N/A   Mostly Cloudy
1:54 AM 82.9 °F 90.8 °F 75.9 °F 79% 29.92 in 10.0 mi East 5.8 mph - N/A   Overcast
2:54 AM 82.9 °F 90.8 °F 75.9 °F 79% 29.91 in 10.0 mi East 6.9 mph - N/A   Overcast
3:54 AM 82.9 °F 90.8 °F 75.9 °F 79% 29.91 in 10.0 mi East 5.8 mph - N/A   Overcast
4:54 AM 82.9 °F 90.8 °F 75.9 °F 79% 29.92 in 10.0 mi East 6.9 mph - N/A   Overcast
5:54 AM 82.9 °F 90.8 °F 75.9 °F 79% 29.93 in 10.0 mi East 6.9 mph - N/A   Overcast
6:54 AM 84.0 °F 92.6 °F 75.9 °F 76% 29.95 in 10.0 mi ESE 8.1 mph - N/A   Scattered Clouds
7:54 AM 86.0 °F 96.0 °F 75.9 °F 72% 29.96 in 10.0 mi East 9.2 mph - N/A   Scattered Clouds
8:54 AM 88.0 °F 98.5 °F 75.9 °F 67% 29.96 in 10.0 mi ESE 10.4 mph - N/A   Mostly Cloudy
9:54 AM 86.0 °F 98.3 °F 78.1 °F 77% 29.95 in 8.0 mi ESE 9.2 mph - 0.00 in Rain Light Rain
10:54 AM 89.1 °F 101.4 °F 77.0 °F 67% 29.93 in 10.0 mi ESE 12.7 mph - 0.00 in   Scattered Clouds
11:54 AM 90.0 °F 102.5 °F 77.0 °F 65% 29.91 in 10.0 mi ESE 12.7 mph - N/A   Scattered Clouds
12:54 PM 89.1 °F 103.2 °F 78.1 °F 70% 29.89 in 10.0 mi SE 12.7 mph - N/A   Scattered Clouds
1:54 PM 89.1 °F 101.4 °F 77.0 °F 67% 29.88 in 10.0 mi SE 10.4 mph - N/A   Scattered Clouds
2:54 PM 88.0 °F 100.2 °F 77.0 °F 70% 29.88 in 10.0 mi ESE 8.1 mph - N/A   Scattered Clouds
3:54 PM 86.0 °F 96.0 °F 75.9 °F 72% 29.88 in 10.0 mi ESE 8.1 mph - N/A   Clear
4:54 PM 86.0 °F 96.9 °F 77.0 °F 74% 29.89 in 10.0 mi East 9.2 mph - N/A   Scattered Clouds
5:54 PM 84.9 °F 94.1 °F 75.9 °F 74% 29.91 in 10.0 mi East 6.9 mph - N/A   Mostly Cloudy
6:54 PM 84.0 °F 93.7 °F 77.0 °F 79% 29.94 in 10.0 mi ENE 4.6 mph - N/A   Overcast
7:54 PM 82.9 °F 92.8 °F 78.1 °F 85% 29.95 in 10.0 mi NE 4.6 mph - N/A   Mostly Cloudy
8:54 PM 84.0 °F 93.7 °F 77.0 °F 79% 29.96 in 10.0 mi NNE 3.5 mph - N/A   Mostly Cloudy
9:54 PM 84.0 °F 92.6 °F 75.9 °F 76% 29.98 in 10.0 mi NE 4.6 mph - N/A   Overcast
10:54 PM 82.0 °F 89.4 °F 75.9 °F 82% 29.96 in 10.0 mi NE 4.6 mph - 0.00 in   Overcast
11:54 PM 82.0 °F 89.4 °F 75.9 °F 82% 29.95 in 10.0 mi Calm Calm - N/A   Overcast